Tracking 22879 objects as of 23-Apr-2021
HD Live streaming from Space Station
objects crossing your sky now

FLOCK 2K 14

Track FLOCK 2K 14 now!
10-day predictions
FLOCK 2K 14 is classified as:


NORAD ID: 42892
Int'l Code: 2017-042BV
Perigee: 422.1 km
Apogee: 431.5 km
Inclination: 96.9 °
Period: 93.0 minutes
Semi major axis: 6797 km
RCS: Unknown
Launch date: July 14, 2017
Source: United States (US)
Launch site: TYURATAM MISSILE AND SPACE COMPLEX (TTMTR)
aabbcc
Your satellite tracking list
Your tracking list is empty




NASA's NSSDC Master Catalog

Two Line Element Set (TLE):
1 42892U 17042BV  21112.36056622  .00013455  00000-0  24989-3 0  9999
2 42892  96.8571 330.7084 0006947 257.8568 102.1906 15.49004757211875
Source of the keplerian elements: AFSPC